Weather History for Mosby, MO

Change the Weather History Date:

Saturday, December 22, 2012

  Actual Average (KMKC) Record (KMKC)
Temperature  
Mean Temperature 30 °F -  
Max Temperature 46 °F 37 °F 55 °F (2001)
Min Temperature 14 °F 21 °F 0 °F (2000)
Degree Days  
Heating Degree Days 35    
Moisture  
Dew Point 22 °F    
Average Humidity 82    
Maximum Humidity 100    
Minimum Humidity 50    
Precipitation  
Precipitation 0.00 in - - ()
Sea Level Pressure  
Sea Level Pressure 30.05 in    
Wind  
Wind Speed 1 mph (SE)    
Max Wind Speed 6 mph    
Max Gust Speed -    
Visibility 10 miles    
Events      
Averages and records for this station are not official NWS values.
T = Trace of Precipitation, MM = Missing Value Source: NWS Daily Summary

Daily Weather History Graph

Daily Weather History Graph

Search for Another Location

Airport:

Trip Planner

Search our weather history database for the weather conditions in past years. The results will help you decide how hot, cold, wet, or windy it might be!

Date:

Astronomy

Dec. 22, 2012 Rise Set
Actual Time 7:34 AM CST 4:58 PM CST
Civil Twilight 7:04 AM CST 5:28 PM CST
Nautical Twilight 6:30 AM CST 6:02 PM CST
Astronomical Twilight 5:57 AM CST 6:34 PM CST
Moon 1:15 PM CST 2:21 AM CST
Length of Visible Light 10h 24m
Length of Day
9h 23m
Waxing Gibbous, 74% of the Moon is Illuminated
Dec 22
Waxing Gibbous
Dec 28
Full
Jan 4
Last Quarter
Jan 11
New
Jan 18
First Quarter

Hourly Weather History & Observations

Time (CST) Temp. Windchill Dew Point Humidity Pressure Visibility Wind Dir Wind Speed Gust Speed Precip Events Conditions
12:15 AM 17.6 °F - 17.6 °F 100% 30.24 in 10.0 mi Calm Calm - N/A   Clear
12:35 AM 17.6 °F - 17.6 °F 100% 30.23 in 10.0 mi Calm Calm - N/A   Clear
12:55 AM 17.6 °F - 15.8 °F 93% 30.23 in 10.0 mi Calm Calm - N/A   Clear
1:15 AM 17.6 °F - 15.8 °F 93% 30.22 in 10.0 mi Calm Calm - N/A   Clear
1:35 AM 15.8 °F - 14.0 °F 93% 30.22 in 10.0 mi Calm Calm - N/A   Unknown
1:55 AM 17.6 °F - 14.0 °F 86% 30.22 in 10.0 mi Calm Calm - N/A   Unknown
2:15 AM 15.8 °F - 14.0 °F 93% 30.21 in 10.0 mi Calm Calm - N/A   Clear
2:35 AM 15.8 °F - 14.0 °F 93% 30.22 in 10.0 mi Calm Calm - N/A   Clear
3:15 AM 15.8 °F - 14.0 °F 93% 30.20 in 10.0 mi Calm Calm - N/A   Clear
3:35 AM 15.8 °F - 14.0 °F 93% 30.20 in 10.0 mi Calm Calm - N/A   Clear
3:55 AM 15.8 °F - 14.0 °F 93% 30.19 in 10.0 mi Calm Calm - N/A   Clear
4:15 AM 14.0 °F - 12.2 °F 93% 30.19 in 10.0 mi Calm Calm - N/A   Clear
4:35 AM 14.0 °F - 12.2 °F 93% 30.18 in 10.0 mi Calm Calm - N/A   Clear
4:55 AM 14.0 °F - 12.2 °F 93% 30.17 in 10.0 mi Calm Calm - N/A   Clear
5:15 AM 14.0 °F - 12.2 °F 93% 30.16 in 10.0 mi Calm Calm - N/A   Clear
5:35 AM 14.0 °F - 12.2 °F 93% 30.15 in 10.0 mi Calm Calm - N/A   Clear
5:55 AM 14.0 °F - 12.2 °F 93% 30.15 in 10.0 mi Calm Calm - N/A   Clear
6:15 AM 14.0 °F - 12.2 °F 93% 30.14 in 10.0 mi Calm Calm - N/A   Clear
6:35 AM 14.0 °F - 12.2 °F 93% 30.13 in 10.0 mi Calm Calm - N/A   Clear
6:55 AM 14.0 °F - 12.2 °F 93% 30.12 in 10.0 mi Calm Calm - N/A   Clear
7:15 AM 14.0 °F - 12.2 °F 93% 30.12 in 10.0 mi Calm Calm - N/A   Unknown
7:35 AM 14.0 °F - 12.2 °F 93% 30.12 in 10.0 mi Calm Calm - N/A   Clear
7:55 AM 17.6 °F - 14.0 °F 86% 30.12 in 10.0 mi Calm Calm - N/A   Clear
8:15 AM 15.8 °F 10.2 °F 14.0 °F 93% 30.10 in 10.0 mi ESE 3.5 mph - N/A   Clear
8:35 AM 21.2 °F - 15.8 °F 80% 30.10 in 10.0 mi Calm Calm - N/A   Clear
8:55 AM 24.8 °F 19.1 °F 19.4 °F 80% 30.10 in 10.0 mi SE 4.6 mph - N/A   Clear
9:15 AM 28.4 °F 23.3 °F 19.4 °F 69% 30.09 in 10.0 mi SE 4.6 mph - N/A   Clear
9:35 AM 30.2 °F - 21.2 °F 69% 30.09 in 10.0 mi Calm Calm - N/A   Clear
9:55 AM 30.2 °F 24.3 °F 21.2 °F 69% 30.09 in 10.0 mi SSE 5.8 mph - N/A   Clear
10:15 AM 32.0 °F 27.5 °F 21.2 °F 64% 30.08 in 10.0 mi SE 4.6 mph - N/A   Unknown
10:35 AM 32.0 °F - 21.2 °F 64% 30.08 in 10.0 mi Calm Calm - N/A   Clear
10:55 AM 32.0 °F - 23.0 °F 69% 30.07 in 10.0 mi Calm Calm - N/A   Clear
11:15 AM 33.8 °F 30.8 °F 23.0 °F 65% 30.05 in 10.0 mi SE 3.5 mph - N/A   Clear
11:35 AM 35.6 °F 32.8 °F 24.8 °F 65% 30.04 in 10.0 mi SSE 3.5 mph - N/A   Clear
11:55 AM 37.4 °F - 24.8 °F 60% 30.02 in 10.0 mi Calm Calm - N/A   Clear
12:15 PM 37.4 °F 34.9 °F 24.8 °F 60% 30.02 in 10.0 mi SSE 3.5 mph - N/A   Clear
12:35 PM 41.0 °F 38.0 °F 26.6 °F 57% 30.00 in 10.0 mi SSE 4.6 mph - N/A   Clear
12:55 PM 41.0 °F 39.0 °F 26.6 °F 57% 29.99 in 10.0 mi SE 3.5 mph - N/A   Clear
1:15 PM 42.8 °F 41.1 °F 26.6 °F 53% 29.97 in 10.0 mi SSE 3.5 mph - N/A   Clear
1:55 PM 44.6 °F 42.2 °F 28.4 °F 53% 29.96 in 10.0 mi SSE 4.6 mph - N/A   Clear
2:15 PM 44.6 °F 42.2 °F 28.4 °F 53% 29.96 in 10.0 mi SE 4.6 mph - N/A   Clear
2:35 PM 44.6 °F - 28.4 °F 53% 29.95 in 10.0 mi Calm Calm - N/A   Clear
2:55 PM 46.4 °F 45.2 °F 30.2 °F 53% 29.94 in 10.0 mi ESE 3.5 mph - N/A   Clear
3:15 PM 46.4 °F 45.2 °F 28.4 °F 50% 29.93 in 10.0 mi ESE 3.5 mph - N/A   Clear
3:35 PM 46.4 °F 45.2 °F 30.2 °F 53% 29.93 in 10.0 mi East 3.5 mph - N/A   Clear
3:55 PM 46.4 °F 45.2 °F 30.2 °F 53% 29.93 in 10.0 mi SE 3.5 mph - N/A   Clear
4:15 PM 46.4 °F - 30.2 °F 53% 29.94 in 10.0 mi Calm Calm - N/A   Clear
4:35 PM 44.6 °F - 30.2 °F 57% 29.94 in 10.0 mi Calm Calm - N/A   Clear
4:55 PM 42.8 °F - 30.2 °F 61% 29.94 in 10.0 mi Calm Calm - N/A   Clear
5:15 PM 39.2 °F - 32.0 °F 75% 29.93 in 10.0 mi Calm Calm - N/A   Clear
5:35 PM 37.4 °F - 32.0 °F 81% 29.93 in 10.0 mi Calm Calm - N/A   Clear
5:55 PM 33.8 °F - 30.2 °F 87% 29.94 in 10.0 mi Calm Calm - N/A   Clear
6:15 PM 33.8 °F - 30.2 °F 87% 29.93 in 10.0 mi Calm Calm - N/A   Clear
6:35 PM 33.8 °F - 30.2 °F 87% 29.94 in 10.0 mi Calm Calm - N/A   Clear
6:55 PM 32.0 °F - 30.2 °F 93% 29.93 in 10.0 mi Calm Calm - N/A   Clear
7:15 PM 32.0 °F - 30.2 °F 93% 29.93 in 10.0 mi Calm Calm - N/A   Clear
7:35 PM 32.0 °F - 30.2 °F 93% 29.93 in 10.0 mi Calm Calm - N/A   Unknown
7:55 PM 30.2 °F - 28.4 °F 93% 29.94 in 10.0 mi Calm Calm - N/A   Clear
8:15 PM 28.4 °F - 28.4 °F 100% 29.95 in 10.0 mi Calm Calm - N/A   Clear
8:35 PM 28.4 °F - 28.4 °F 100% 29.95 in 10.0 mi Calm Calm - N/A   Clear
8:55 PM 28.4 °F - 28.4 °F 100% 29.95 in 10.0 mi Calm Calm - N/A   Clear
9:15 PM 28.4 °F - 28.4 °F 100% 29.95 in 10.0 mi Calm Calm - N/A   Clear
9:35 PM 28.4 °F - 28.4 °F 100% 29.95 in 10.0 mi Calm Calm - N/A   Clear
9:55 PM 28.4 °F - 28.4 °F 100% 29.96 in 10.0 mi Calm Calm - N/A   Clear
10:15 PM 28.4 °F - 28.4 °F 100% 29.95 in 10.0 mi Calm Calm - N/A   Clear
10:35 PM 28.4 °F - 26.6 °F 93% 29.95 in 10.0 mi Calm Calm - N/A   Clear
10:55 PM 28.4 °F - 26.6 °F 93% 29.95 in 10.0 mi Calm Calm - N/A   Clear
11:15 PM 26.6 °F - 26.6 °F 100% 29.94 in 10.0 mi Calm Calm - N/A   Clear
11:35 PM 26.6 °F - 26.6 °F 100% 29.95 in 10.0 mi Calm Calm - N/A   Clear
11:55 PM 26.6 °F - 26.6 °F 100% 29.94 in 10.0 mi Calm Calm - N/A   Clear